GW2442 Weather Reports


time (UTC)temp
F
wind
direction
speed
knots
gust
knots
rain 1hr
in
rain 24hr
in
rain mn
in
humidity
%
barometer
mb
20260506024338 68 175 0.9 1.7 0.00 0.01 0.01 51 1007.4
20260506023835 69 145 0.9 0.9 0.00 0.01 0.01 51 1007.5
20260506023331 69 125 0.0 0.9 0.00 0.01 0.01 50 1007.4
20260506022828 69 133 1.7 6.1 0.00 0.01 0.01 50 1007.4
20260506022326 69 117 1.7 1.7 0.00 0.01 0.01 49 1007.4
20260506021824 70 140 0.9 1.7 0.00 0.01 0.01 48 1007.3
20260506021321 70 117 0.9 2.6 0.00 0.01 0.01 47 1007.6
20260506020817 70 145 0.9 1.7 0.00 0.01 0.01 47 1007.3
20260506020315 71 128 0.9 1.7 0.00 0.01 0.01 47 1007.2
20260506015813 70 113 0.0 2.6 0.00 0.01 0.01 46 1007.3
20260506015310 71 179 0.9 1.7 0.00 0.01 0.01 46 1007.2
20260506014806 71 114 0.9 2.6 0.00 0.01 0.01 45 1007.0
20260506014303 71 91 0.9 2.6 0.00 0.01 0.01 46 1007.0
20260506013800 71 122 0.9 4.3 0.00 0.01 0.01 46 1006.8
20260506013257 71 136 0.0 0.9 0.00 0.01 0.01 46 1006.9
20260506012754 71 129 0.0 1.7 0.00 0.01 0.01 46 1006.9
20260506012251 71 105 0.0 1.7 0.00 0.01 0.01 46 1006.9
20260506011748 71 42 0.9 2.6 0.00 0.01 0.01 46 1006.6
20260506011244 70 154 0.9 1.7 0.00 0.01 0.01 46 1006.5
20260506010743 71 133 0.9 5.2 0.00 0.01 0.01 46 1006.8
20260506010239 71 141 0.9 1.7 0.00 0.01 0.01 46 1006.6
20260506005737 71 181 0.9 1.7 0.00 0.01 0.01 45 1006.7
20260506005233 71 172 2.6 4.3 0.00 0.01 0.01 44 1006.6
20260506004729 71 182 0.9 2.6 0.00 0.01 0.01 46 1006.6
20260506004227 72 101 0.9 1.7 0.00 0.01 0.01 44 1006.5
20260506003723 72 110 0.0 1.7 0.00 0.01 0.01 44 1006.4
20260506003220 73 186 1.7 2.6 0.00 0.01 0.01 43 1006.5
20260506002715 73 318 0.9 2.6 0.00 0.01 0.01 43 1006.4
20260506002212 73 77 2.6 4.3 0.00 0.01 0.01 42 1006.3
20260506001708 73 13 1.7 5.2 0.00 0.01 0.01 42 1006.2
20260506001205 73 97 0.9 6.1 0.00 0.01 0.01 43 1006.3
20260506000702 73 144 0.0 4.3 0.00 0.01 0.01 43 1006.2
20260506000200 73 93 0.9 1.7 0.00 0.01 0.01 43 1006.2
20260505235657 73 120 0.0 2.6 0.00 0.01 0.01 42 1006.1
20260505235155 73 211 1.7 4.3 0.00 0.01 0.01 43 1006.1
20260505234651 74 167 0.9 4.3 0.00 0.01 0.01 42 1006.1
20260505234149 74 296 1.7 2.6 0.00 0.01 0.01 43 1005.9
20260505233645 73 103 0.0 2.6 0.00 0.01 0.01 43 1006.1
20260505233143 74 66 0.9 0.9 0.00 0.01 0.01 43 1006.0
20260505232640 74 168 0.9 5.2 0.00 0.01 0.01 43 1006.2
20260505232138 74 149 0.0 4.3 0.00 0.01 0.01 43 1006.0
20260505231634 74 115 1.7 1.7 0.00 0.01 0.01 43 1006.1
20260505231133 74 114 0.0 1.7 0.00 0.01 0.01 43 1005.7
20260505230631 74 147 0.0 1.7 0.00 0.01 0.01 42 1005.9
20260505230127 74 136 0.0 0.9 0.00 0.01 0.01 42 1005.8
20260505225623 75 114 0.0 1.7 0.00 0.01 0.01 42 1005.6
20260505225120 74 156 1.7 4.3 0.00 0.01 0.01 41 1005.8
20260505224616 74 23 3.5 6.1 0.00 0.01 0.01 42 1005.6
20260505224114 75 114 0.9 2.6 0.00 0.01 0.01 41 1005.7
20260505223611 75 159 1.7 2.6 0.00 0.01 0.01 40 1005.7
20260505223107 75 174 0.9 5.2 0.00 0.01 0.01 41 1005.7
20260505222604 75 150 0.9 2.6 0.00 0.01 0.01 40 1005.6
20260505222100 75 116 1.7 4.3 0.00 0.01 0.01 40 1005.5
20260505221557 76 99 0.0 0.9 0.00 0.01 0.01 39 1005.6
20260505221053 76 209 1.7 4.3 0.00 0.01 0.01 39 1005.5
20260505220551 76 189 2.6 5.2 0.00 0.01 0.01 38 1005.6
20260505220048 76 122 3.5 4.3 0.00 0.01 0.01 38 1005.4
20260505215546 76 179 0.9 2.6 0.00 0.01 0.01 38 1005.4
20260505215044 76 32 2.6 7.0 0.00 0.01 0.01 38 1005.4
20260505214542 76 133 0.0 4.3 0.00 0.01 0.01 39 1005.3
20260505214038 77 157 0.9 5.2 0.00 0.01 0.01 38 1005.3
20260505213536 77 78 1.7 6.1 0.00 0.01 0.01 38 1005.2
20260505213032 77 47 1.7 2.6 0.00 0.01 0.01 38 1005.1
20260505212529 77 104 0.9 6.1 0.00 0.01 0.01 38 1005.3
20260505212026 78 161 2.6 6.1 0.00 0.01 0.01 37 1005.1
20260505211523 78 147 1.7 6.1 0.00 0.01 0.01 37 1005.1
20260505211020 78 118 0.9 5.2 0.00 0.01 0.01 38 1005.2
20260505210516 78 219 2.6 6.1 0.00 0.01 0.01 38 1004.9
20260505210014 79 152 0.9 6.1 0.00 0.01 0.01 37 1005.0
20260505205512 79 319 1.7 5.2 0.00 0.01 0.01 37 1005.1
20260505205009 80 157 3.5 5.2 0.00 0.01 0.01 36 1005.1
20260505204506 81 109 2.6 5.2 0.00 0.01 0.01 36 1004.9
20260505204003 82 56 0.9 5.2 0.00 0.01 0.01 32 1005.0
20260505203459 82 359 4.3 8.7 0.00 0.01 0.01 30 1005.0
20260505202956 82 312 2.6 6.1 0.00 0.01 0.01 28 1004.9
20260505202453 79 199 2.6 6.1 0.00 0.01 0.01 30 1004.9
20260505201949 79 206 2.6 5.2 0.00 0.01 0.01 30 1004.9
20260505201446 80 306 6.1 11.3 0.00 0.01 0.01 29 1005.1
20260505200943 80 169 4.3 6.1 0.00 0.01 0.01 30 1005.1
20260505200441 81 343 2.6 7.8 0.00 0.01 0.01 29 1005.0
20260505195936 81 165 2.6 7.8 0.00 0.01 0.01 29 1005.4
20260505195434 80 181 2.6 9.6 0.00 0.01 0.01 30 1005.3
20260505194931 81 148 4.3 7.0 0.00 0.01 0.01 28 1005.6
20260505194429 81 227 2.6 8.7 0.00 0.01 0.01 31 1005.6
20260505193928 81 197 1.7 7.8 0.00 0.01 0.01 30 1005.6
20260505193426 80 102 4.3 7.0 0.00 0.01 0.01 30 1005.5
20260505192924 80 117 5.2 7.8 0.00 0.01 0.01 29 1005.6
20260505192422 81 73 1.7 7.8 0.00 0.01 0.01 27 1005.8
20260505191919 82 172 4.3 6.1 0.00 0.01 0.01 26 1005.8
20260505191418 82 240 2.6 8.7 0.00 0.01 0.01 26 1005.8
20260505190914 82 321 2.6 8.7 0.00 0.01 0.01 27 1005.6
20260505190410 82 199 2.6 9.6 0.00 0.01 0.01 28 1005.8
20260505185905 81 171 0.9 5.2 0.00 0.01 0.01 28 1005.8
20260505185403 82 269 1.7 7.0 0.00 0.01 0.01 31 1005.9
20260505184858 82 4 3.5 4.3 0.00 0.01 0.01 31 1006.0
20260505184355 82 188 2.6 5.2 0.00 0.01 0.01 31 1005.6
20260505183852 82 266 3.5 7.0 0.00 0.01 0.01 34 1005.9
20260505183349 82 239 1.7 9.6 0.00 0.01 0.01 31 1006.0
20260505182846 81 206 3.5 7.0 0.00 0.01 0.01 33 1006.1
20260505182343 80 294 1.7 2.6 0.00 0.01 0.01 34 1006.1
20260505181840 81 178 1.7 7.0 0.00 0.01 0.01 34 1006.3
20260505181337 81 190 0.9 2.6 0.00 0.01 0.01 36 1006.2
20260505180833 80 113 1.7 5.2 0.00 0.01 0.01 36 1006.5
20260505180330 81 306 1.7 4.3 0.00 0.01 0.01 38 1006.5
20260505175826 81 231 2.6 8.7 0.00 0.01 0.01 36 1006.5
20260505175323 80 135 1.7 6.1 0.00 0.01 0.01 36 1006.5
20260505174819 81 121 1.7 6.1 0.00 0.01 0.01 34 1006.9
20260505174317 80 352 4.3 7.0 0.00 0.01 0.01 37 1006.6
20260505173813 79 337 4.3 7.8 0.00 0.01 0.01 35 1006.7
20260505173309 79 86 6.1 11.3 0.00 0.01 0.01 37 1006.7
20260505172807 79 243 1.7 4.3 0.00 0.01 0.01 38 1006.7
20260505172306 79 253 5.2 7.0 0.00 0.01 0.01 39 1006.8
20260505171758 79 83 2.6 11.3 0.00 0.01 0.01 40 1006.7
20260505171255 79 298 4.3 7.0 0.00 0.01 0.01 39 1006.7
20260505170752 79 240 2.6 6.1 0.00 0.01 0.01 38 1006.8
20260505170249 79 274 1.7 4.3 0.00 0.01 0.01 41 1006.9
20260505165744 79 120 1.7 5.2 0.00 0.01 0.01 42 1006.9
20260505165240 79 147 2.6 4.3 0.00 0.01 0.01 42 1007.0
20260505164736 78 128 2.6 4.3 0.00 0.01 0.01 41 1006.9
20260505164233 78 355 0.9 2.6 0.00 0.01 0.01 45 1007.3
20260505163731 78 62 1.7 2.6 0.00 0.01 0.01 41 1007.4
20260505163230 78 166 2.6 6.1 0.00 0.01 0.01 42 1007.4
20260505162727 77 129 0.9 2.6 0.00 0.01 0.01 49 1007.5
20260505162224 77 60 2.6 5.2 0.00 0.01 0.01 43 1007.7
20260505161720 77 181 2.6 2.6 0.00 0.01 0.01 43 1007.6
20260505161218 76 138 0.9 6.1 0.00 0.01 0.01 45 1007.5
20260505160715 76 205 4.3 6.1 0.00 0.01 0.01 44 1007.6
20260505160213 75 320 3.5 7.0 0.00 0.01 0.01 48 1007.8
20260505153152 74 229 3.5 8.7 0.00 0.01 0.01 48 1007.8
20260505152649 73 187 1.7 2.6 0.00 0.01 0.01 51 1008.2
20260505152145 73 204 1.7 5.2 0.00 0.01 0.01 49 1008.2
20260505151640 73 65 2.6 5.2 0.00 0.01 0.01 49 1008.2
20260505151138 72 117 0.0 1.7 0.00 0.01 0.01 53 1008.1
20260505150633 72 178 2.6 2.6 0.00 0.01 0.01 51 1008.2
20260505150131 72 161 0.9 4.3 0.00 0.01 0.01 51 1008.2
20260505140559 67 198 0.9 5.2 0.00 0.01 0.01 61 1008.6
20260505125013 62 106 0.0 1.7 0.00 0.01 0.01 72 1008.4
20260505124509 61 145 0.0 1.7 0.00 0.01 0.01 74 1008.5
20260505124006 60 352 2.6 2.6 0.00 0.01 0.01 74 1008.4
20260505123503 60 110 0.0 1.7 0.00 0.01 0.01 75 1008.5
20260505122958 60 96 0.9 1.7 0.00 0.01 0.01 75 1008.4
20260505122456 60 108 0.0 0.9 0.00 0.01 0.01 76 1008.5
20260505121952 59 116 0.9 2.6 0.00 0.01 0.01 76 1008.4
20260505121449 59 171 0.9 0.9 0.00 0.01 0.01 77 1008.5
20260505120945 59 79 0.0 0.9 0.00 0.01 0.01 80 1008.5
20260505120442 58 99 0.9 1.7 0.00 0.01 0.01 80 1008.7
20260505115941 57 89 0.0 1.7 0.00 0.01 0.01 81 1008.7
20260505115438 57 100 0.0 1.7 0.00 0.01 0.01 81 1008.4
20260505114936 57 67 0.9 0.9 0.00 0.01 0.01 81 1008.3
20260505114431 56 112 0.0 0.9 0.00 0.01 0.01 82 1008.3
20260505113928 56 119 0.0 0.9 0.00 0.01 0.01 83 1008.2
20260505113425 55 133 0.0 0.9 0.00 0.01 0.01 82 1008.2
20260505112921 55 123 0.0 0.9 0.00 0.01 0.01 84 1008.0
20260505112419 55 112 0.0 0.0 0.00 0.01 0.01 85 1008.1
20260505111914 54 115 0.0 0.9 0.00 0.01 0.01 85 1008.1
20260505111409 54 115 0.0 0.9 0.00 0.01 0.01 87 1008.1
20260505110906 53 115 0.0 0.0 0.00 0.01 0.01 87 1008.1
20260505110403 53 115 0.0 0.9 0.00 0.01 0.01 88 1008.1
20260505101833 53 129 0.0 0.0 0.00 0.01 0.01 90 1007.5
20260505101328 53 128 0.0 0.0 0.00 0.01 0.01 89 1007.6
20260505100824 53 128 0.0 0.0 0.00 0.01 0.01 89 1007.4
20260505100321 53 128 0.0 0.9 0.00 0.01 0.01 89 1007.4
20260505095817 53 118 0.0 0.9 0.00 0.01 0.01 88 1007.5
20260505095315 53 119 0.0 0.9 0.00 0.01 0.01 87 1007.4
20260505094810 53 142 1.7 1.7 0.00 0.01 0.01 87 1007.6
20260505094307 54 126 0.9 1.7 0.05 0.01 0.01 84 1007.4
20260505093803 54 152 0.9 1.7 0.05 0.01 0.01 83 1007.5
20260505093301 54 99 0.9 2.6 0.00 0.00 0.00 78 1007.7
20260505092757 54 134 0.9 2.6 0.00 0.00 0.00 73 1008.3
20260505092256 54 106 0.0 0.9 0.00 0.00 0.00 72 1008.3
20260505091753 54 102 0.0 0.9 0.00 0.00 0.00 72 1008.2
20260505091251 55 89 0.9 1.7 0.00 0.00 0.00 69 1008.3
20260505090748 56 100 0.0 1.7 0.00 0.00 0.00 68 1007.7
20260505090246 54 90 0.9 1.7 0.00 0.00 0.00 70 1007.7
20260505085743 53 182 0.9 0.9 0.00 0.00 0.00 71 1007.8
20260505085241 54 96 0.0 0.9 0.00 0.00 0.00 70 1007.8
20260505084738 53 117 0.9 0.9 0.00 0.00 0.00 72 1007.7
20260505084238 52 133 0.0 0.0 0.00 0.00 0.00 72 1007.6
20260505083734 53 135 0.0 0.0 0.00 0.00 0.00 72 1007.4
20260505083230 53 139 0.0 0.9 0.00 0.00 0.00 71 1007.5
20260505082726 53 115 0.0 0.0 0.00 0.00 0.00 71 1007.3
20260505082224 53 120 0.0 0.0 0.00 0.00 0.00 71 1007.3
20260505081719 53 122 0.0 0.0 0.00 0.00 0.00 70 1007.3
20260505081217 53 120 0.0 0.9 0.00 0.00 0.00 70 1007.4
20260505080714 53 135 0.0 0.9 0.00 0.00 0.00 70 1007.3
20260505080210 53 123 0.0 0.0 0.00 0.00 0.00 70 1007.2
20260505075706 54 122 0.0 0.9 0.00 0.00 0.00 68 1007.4
20260505075203 53 130 0.0 0.9 0.00 0.00 0.00 69 1007.4
20260505074700 53 124 0.0 0.9 0.00 0.00 0.00 69 1007.3
20260505074157 53 112 0.0 0.9 0.00 0.00 0.00 69 1007.4
20260505073655 54 118 0.0 0.9 0.00 0.00 0.00 68 1007.5
20260505073153 54 132 0.0 0.9 0.00 0.00 0.00 66 1007.4
20260505072648 54 125 0.0 0.9 0.00 0.00 0.00 67 1007.6
20260505072145 55 103 0.9 0.9 0.00 0.00 0.00 66 1007.5
20260505071640 56 84 0.0 0.9 0.00 0.00 0.00 64 1007.2
20260505071138 56 124 0.0 1.7 0.00 0.00 0.00 64 1007.3
20260505070635 56 122 0.0 0.9 0.00 0.00 0.00 63 1007.4
20260505070132 56 161 0.9 4.3 0.00 0.00 0.00 62 1007.2
20260505065627 56 130 0.9 1.7 0.00 0.00 0.00 63 1007.3
20260505065124 55 123 0.0 0.9 0.00 0.00 0.00 63 1007.2
20260505064621 55 132 0.0 0.9 0.00 0.00 0.00 65 1007.2
20260505064120 55 112 0.0 0.9 0.00 0.00 0.00 64 1007.2
20260505063617 55 94 0.9 0.9 0.00 0.00 0.00 64 1007.3
20260505063112 55 83 0.9 0.9 0.00 0.00 0.00 65 1007.4
20260505062609 55 116 0.9 0.9 0.00 0.00 0.00 64 1007.3
20260505062107 55 130 1.7 1.7 0.00 0.00 0.00 63 1007.5
20260505061604 56 112 0.0 0.9 0.00 0.00 0.00 62 1007.4
20260505061102 56 115 0.0 0.9 0.00 0.00 0.00 61 1007.4
20260505060559 56 115 0.0 0.9 0.00 0.00 0.00 63 1007.5
20260505060055 56 165 1.7 1.7 0.00 0.00 0.00 62 1007.5
20260505055551 55 132 0.9 1.7 0.00 0.00 0.00 63 1007.5
20260505055048 56 105 0.0 0.9 0.00 0.00 0.00 63 1007.7
20260505054545 56 141 0.0 0.9 0.00 0.00 0.00 61 1007.7
20260505054043 55 136 0.9 0.9 0.00 0.00 0.00 63 1007.8
20260505053540 56 159 0.9 0.9 0.00 0.00 0.00 61 1007.5
20260505053036 56 123 0.0 0.9 0.00 0.00 0.00 61 1007.5
20260505052533 56 110 0.0 0.9 0.00 0.00 0.00 61 1007.6
20260505052031 57 121 0.0 0.9 0.00 0.00 0.00 61 1007.5
20260505051527 57 128 0.0 0.9 0.00 0.00 0.00 60 1007.6
20260505051026 57 117 0.9 0.9 0.00 0.00 0.00 59 1007.5
20260505050524 57 110 0.0 1.7 0.00 0.00 0.00 60 1007.7
20260505041446 58 119 0.9 0.9 0.00 0.00 0.00 57 1007.6
20260505040943 58 127 0.0 0.9 0.00 0.00 0.00 57 1007.3
20260505040440 59 135 0.9 1.7 0.00 0.00 0.00 56 1007.4
20260505035937 58 113 0.0 1.7 0.00 0.00 0.00 56 1007.3
20260505035433 58 104 0.0 0.9 0.00 0.00 0.00 56 1007.3
20260505034931 58 124 0.0 1.7 0.00 0.00 0.00 56 1007.3
20260505034427 58 93 0.0 0.9 0.00 0.00 0.00 56 1007.4
20260505033924 58 111 0.0 0.9 0.00 0.00 0.00 55 1007.3
20260505033420 59 114 0.0 0.9 0.00 0.00 0.00 53 1007.6
20260505032919 59 111 0.0 0.9 0.00 0.00 0.00 54 1007.4
20260505032416 59 225 0.9 1.7 0.00 0.00 0.00 53 1007.4
20260505031912 59 101 0.9 0.9 0.00 0.00 0.00 54 1007.6
20260505031409 59 130 0.9 0.9 0.00 0.00 0.00 53 1007.5
20260505030906 59 121 0.9 1.7 0.00 0.00 0.00 56 1007.5
20260505030402 58 121 0.0 0.9 0.00 0.00 0.00 56 1007.8
20260505025857 59 138 0.0 0.9 0.00 0.00 0.00 55 1007.8
20260505025355 59 126 0.0 0.9 0.00 0.00 0.00 55 1007.8
20260505024854 59 135 0.0 0.9 0.00 0.00 0.00 55 1008.0